Flag for U.S.A. Weather past 2 weeks in Kansas City, Missouri, U.S.A.

Now
21 °F

Light snow. Overcast.


Feels Like: 15 °F
Forecast: 14 / 27 °F
Wind: 5 mph from East

Location: Kansas City Downtown Airport

Current Time: Feb 28, 2015 at 11:59:45 AM

Latest Report: Feb 28, 2015 at 10:54 AM


Visibility: 1 mi

Pressure: 30.55 "Hg

Humidity: 81%

Dew point: 16 °F

Location of Kansas CityLocation

Historic Weather in Kansas City — Graph

°F

Kansas City temperature yesterday

Maximum temperature yesterday: 19 °F (at 3:54 PM)
Minimum temperature yesterday: 4 °F (at 5:54 AM)
Average temperature yesterday: 13 °F

Past Weeks' High & Low Weather Summary

 TemperatureHumidityPressure
High55 °F (Feb 25, 1:54 PM)96% (Feb 21, 12:54 AM)30.83 "Hg (Feb 21, 12:54 AM)
Low4 °F (Feb 27, 5:54 AM)22% (Feb 14, 2:54 PM)29.72 "Hg (Feb 25, 2:54 PM)
Average24 °F59%30.29 "Hg
* Reported Feb 13 10:54 AM — Feb 28 10:54 AM, Kansas City, Weather by CustomWeather, © 2015

Note: Actual official high and low records may vary slightly from our data, if they occured in-between our weather recording intervals... More about our weather records

Advertising

Kansas City weather history for previous 24 hours

 ConditionsComfort  
Time TempWeatherWind HumidityBarometerVisibility
10:54 AM
Sat, Feb 28
21 °FLight snow. Overcast.5 mph81%30.55 "Hg1 mi
9:54 AM21 °FLight snow. Mostly cloudy.7 mph71%30.57 "Hg1 mi
8:54 AM21 °FCloudy.6 mph60%30.57 "Hg10 mi
7:54 AM19 °FOvercast.9 mph68%30.55 "Hg10 mi
6:54 AM18 °FPartly sunny.8 mph71%30.56 "Hg10 mi
5:54 AM17 °FOvercast.7 mph70%30.57 "Hg10 mi
4:54 AM18 °FOvercast.7 mph65%30.57 "Hg10 mi
3:54 AM17 °FOvercast.6 mph68%30.56 "Hg10 mi
2:54 AM17 °FOvercast.8 mph64%30.57 "Hg10 mi
1:54 AM18 °FOvercast.7 mph59%30.58 "Hg10 mi
12:54 AM17 °FOvercast.7 mph59%30.59 "Hg10 mi
11:54 PM
Fri, Feb 27
18 °FOvercast.7 mph57%30.60 "Hg10 mi
10:54 PM18 °FOvercast.7 mph57%30.61 "Hg10 mi
9:54 PM18 °FOvercast.7 mph57%30.62 "Hg10 mi
8:54 PM18 °FOvercast.9 mph54%30.61 "Hg10 mi
7:54 PM18 °FClear.8 mph54%30.61 "Hg10 mi
6:54 PM19 °FPassing clouds.8 mph47%30.61 "Hg10 mi
5:54 PM19 °FMostly cloudy.8 mph45%30.61 "Hg10 mi
4:54 PM19 °FOvercast.8 mph45%30.60 "Hg10 mi
3:54 PM19 °FPartly sunny.No wind43%30.61 "Hg10 mi
2:54 PM18 °FScattered clouds.5 mph45%30.62 "Hg10 mi
1:54 PM17 °FPassing clouds.No wind45%30.63 "Hg10 mi
12:54 PM16 °FPassing clouds.No wind47%30.66 "Hg10 mi
11:54 AM15 °FSunny.No wind46%30.70 "Hg10 mi
Weather by CustomWeather, © 2015

See weather overviewHow to use our weather pages